Plymouth, NH

10:54 PM EDT on October 18, 2017 (GMT -0400)
Plymouth

Weather History for K1P1 - December, 2012

Change the Weather History Date:

Friday, December 21, 2012

  Actual Average (KLCI) Record (KLCI)
Temperature  
Mean Temperature 41 °F -  
Max Temperature 50 °F 33 °F 51 °F (2012)
Min Temperature 32 °F 17 °F -2 °F (2004)
Degree Days  
Heating Degree Days 24    
Moisture  
Dew Point 35 °F    
Average Humidity 90    
Maximum Humidity 99    
Minimum Humidity 71    
Precipitation  
Precipitation 1.11 in - - ()
Sea Level Pressure  
Sea Level Pressure 29.41 in    
Wind  
Wind Speed 7 mph (ESE)    
Max Wind Speed 14 mph    
Max Gust Speed 28 mph    
Visibility 5 miles    
Events Rain , Snow    
Averages and records for this station are not official NWS values.
T = Trace of Precipitation, MM = Missing Value Source: NWS Daily Summary

Daily Weather History Graph

Daily Weather History Graph

Search for Another Location

Airport or City:

Trip Planner

Search our weather history database for the weather conditions in past years. The results will help you decide how hot, cold, wet, or windy it might be!

Date:

Astronomy

Dec. 21, 2012 Rise Set
Actual Time 7:17 AM EST 4:12 PM EST
Civil Twilight 6:45 AM EST 4:45 PM EST
Nautical Twilight 6:08 AM EST 5:22 PM EST
Astronomical Twilight 5:33 AM EST 5:57 PM EST
Moon 12:05 PM EST (12/21) 12:53 AM EST (12/21)
Length of Visible Light 10h 00m
Length of Day
8h 54m
Waxing Gibbous, 64% of the Moon is Illuminated
Dec 21
Waxing Gibbous
Dec 28
Full
Jan 4
Last Quarter
Jan 11
New
Jan 18
First Quarter

Hourly Weather History & Observations

Time (EST) Temp. Windchill Dew Point Humidity Pressure Visibility Wind Dir Wind Speed Gust Speed Precip Events Conditions
12:15 AM 33.4 °F 26.6 °F 30.2 °F 88% 30.00 in 10.0 mi East 8.1 mph - N/A   Overcast
12:35 AM 33.4 °F 27.3 °F 30.2 °F 88% 30.00 in 10.0 mi East 6.9 mph - N/A   Overcast
12:55 AM 33.4 °F 26.6 °F 30.0 °F 87% 29.98 in 10.0 mi East 8.1 mph - N/A   Overcast
1:15 AM 33.6 °F 30.6 °F 30.2 °F 87% 29.97 in 5.0 mi SE 3.5 mph - N/A Snow Light Snow
1:35 AM 32.9 °F 27.5 °F 31.1 °F 93% 29.97 in 1.2 mi ESE 5.8 mph - N/A Snow Light Snow
1:55 AM 32.4 °F 26.9 °F 31.8 °F 98% 29.95 in 1.0 mi East 5.8 mph - 0.02 in Snow Snow
2:15 AM 32.2 °F 26.7 °F 32.0 °F 99% 29.93 in 1.0 mi East 5.8 mph - 0.01 in Snow Snow
2:35 AM 32.2 °F 25.8 °F 32.0 °F 99% 29.91 in 1.2 mi ESE 6.9 mph - 0.02 in Snow Light Snow
2:55 AM 32.4 °F 26.0 °F 32.0 °F 99% 29.90 in 1.5 mi ESE 6.9 mph - 0.03 in Snow Light Snow
3:15 AM 32.2 °F 27.7 °F 31.8 °F 99% 29.89 in 1.2 mi SE 4.6 mph - 0.02 in Snow Light Snow
3:35 AM 32.4 °F 26.9 °F 31.6 °F 97% 29.88 in 1.2 mi ESE 5.8 mph - 0.03 in Snow Light Snow
3:55 AM 32.0 °F 27.5 °F 31.5 °F 98% 29.86 in 1.2 mi ESE 4.6 mph - 0.05 in Snow Snow
4:15 AM 32.0 °F 27.5 °F 31.5 °F 98% 29.84 in 1.0 mi ESE 4.6 mph - 0.02 in Snow Snow
4:35 AM 32.0 °F 26.4 °F 31.5 °F 98% 29.83 in 1.0 mi ESE 5.8 mph - 0.04 in Snow Snow
4:55 AM 32.0 °F 26.4 °F 31.1 °F 96% 29.81 in 0.8 mi ESE 5.8 mph - 0.06 in Snow Snow
5:15 AM 32.0 °F 26.4 °F 31.1 °F 96% 29.80 in 1.0 mi ESE 5.8 mph - 0.01 in Snow Snow
5:35 AM 32.0 °F 25.6 °F 31.1 °F 96% 29.78 in 1.0 mi ESE 6.9 mph - 0.03 in Snow Snow
5:55 AM 32.0 °F 27.5 °F 31.1 °F 96% 29.74 in 2.0 mi ESE 4.6 mph - 0.03 in Snow Light Snow
6:15 AM 32.0 °F 24.8 °F 31.1 °F 96% 29.71 in 3.0 mi ESE 8.1 mph - N/A Snow Light Snow
6:35 AM 32.9 °F 25.9 °F 31.1 °F 93% 29.70 in 7.0 mi ESE 8.1 mph 17.3 mph N/A Snow Light Snow
6:55 AM 32.9 °F 24.7 °F 30.9 °F 92% 29.69 in 7.0 mi ESE 10.4 mph - N/A   Overcast
7:15 AM 32.9 °F 24.1 °F 31.1 °F 93% 29.67 in 3.0 mi ESE 11.5 mph 16.1 mph N/A Snow Light Snow
7:35 AM 32.7 °F 25.0 °F 31.5 °F 95% 29.65 in 3.0 mi ESE 9.2 mph - N/A   Overcast
7:55 AM 33.1 °F 25.5 °F 32.0 °F 96% 29.64 in 1.8 mi ESE 9.2 mph - N/A   Overcast
8:15 AM 33.4 °F 25.4 °F 32.0 °F 94% 29.63 in 1.0 mi East 10.4 mph - N/A Snow Light Snow
8:35 AM 33.4 °F 26.6 °F 32.4 °F 96% 29.62 in 1.2 mi ESE 8.1 mph - 0.01 in Snow Light Snow
8:55 AM 33.8 °F 26.4 °F 32.5 °F 95% 29.61 in 1.8 mi East 9.2 mph - 0.02 in Snow Light Snow
9:15 AM 34.9 °F 25.7 °F 33.4 °F 94% 29.61 in 2.5 mi East 13.8 mph 19.6 mph N/A Snow Light Snow
9:35 AM 35.1 °F 27.9 °F 33.8 °F 95% 29.58 in 2.0 mi ESE 9.2 mph 19.6 mph 0.01 in Rain Light Rain
9:55 AM 36.0 °F 29.0 °F 34.0 °F 93% 29.55 in 2.5 mi ESE 9.2 mph 18.4 mph 0.02 in Rain Light Rain
10:15 AM 36.0 °F 29.6 °F 34.0 °F 93% 29.51 in 4.0 mi ESE 8.1 mph - 0.03 in Rain Rain
10:35 AM 36.5 °F 30.3 °F 34.3 °F 92% 29.49 in 4.0 mi ESE 8.1 mph - 0.06 in Rain Rain
10:55 AM 37.0 °F 28.9 °F 34.9 °F 92% 29.45 in 2.0 mi ESE 12.7 mph 17.3 mph 0.09 in Rain Rain
11:15 AM 37.4 °F 30.8 °F 35.2 °F 92% 29.42 in 2.5 mi SE 9.2 mph - 0.03 in Rain Rain
11:35 AM 37.9 °F 32.7 °F 36.0 °F 93% 29.38 in 2.0 mi SE 6.9 mph 16.1 mph 0.06 in Rain Rain
11:55 AM 39.2 °F 34.2 °F 36.9 °F 91% 29.35 in 2.5 mi SE 6.9 mph - 0.10 in Rain Rain
12:15 PM 39.0 °F 32.8 °F 36.7 °F 91% 29.32 in 3.0 mi SE 9.2 mph 16.1 mph 0.04 in Rain Rain
12:35 PM 39.2 °F 32.0 °F 37.0 °F 92% 29.28 in 2.5 mi SE 11.5 mph 17.3 mph 0.08 in Rain Rain
12:55 PM 39.6 °F 34.7 °F 37.4 °F 92% 29.25 in 5.0 mi SE 6.9 mph 16.1 mph 0.11 in Rain Rain
1:15 PM 40.8 °F 34.1 °F 39.0 °F 93% 29.19 in 2.0 mi ESE 11.5 mph 21.9 mph 0.07 in Rain Rain
1:35 PM 41.7 °F 36.7 °F 39.4 °F 91% 29.14 in 4.0 mi SE 8.1 mph - 0.12 in Rain Rain
1:55 PM 42.1 °F 38.4 °F 40.1 °F 93% 29.09 in 3.0 mi SE 5.8 mph 9.2 mph 0.16 in Rain Rain
2:15 PM 43.0 °F 37.2 °F 41.0 °F 93% 29.06 in 2.5 mi SE 10.4 mph 21.9 mph 0.05 in Rain Rain
2:35 PM 43.5 °F 38.9 °F 41.4 °F 92% 29.04 in 2.0 mi SSE 8.1 mph 24.2 mph 0.12 in Rain Rain
2:55 PM 44.2 °F 37.6 °F 43.0 °F 95% 29.03 in 1.8 mi East 13.8 mph 19.6 mph 0.20 in Rain Rain
3:15 PM 45.5 °F 40.8 °F 44.1 °F 95% 29.01 in 3.0 mi East 9.2 mph - 0.06 in Rain Rain
3:35 PM 47.7 °F - 46.4 °F 95% 28.99 in 3.0 mi East 13.8 mph 18.4 mph 0.11 in Rain Rain
3:55 PM 50.4 °F - 46.4 °F 86% 29.00 in 7.0 mi ESE 12.7 mph 27.6 mph 0.18 in Rain Light Rain
4:15 PM 49.5 °F - 46.4 °F 89% 29.00 in 10.0 mi East 9.2 mph - N/A   Mostly Cloudy
4:35 PM 50.0 °F - 45.5 °F 85% 29.01 in 10.0 mi ESE 9.2 mph 18.4 mph N/A   Overcast
4:55 PM 49.3 °F - 44.8 °F 84% 29.01 in 10.0 mi ESE 8.1 mph 16.1 mph N/A   Overcast
5:15 PM 44.8 °F 40.4 °F 40.3 °F 84% 29.03 in 5.0 mi South 8.1 mph 19.6 mph 0.03 in Rain Heavy Rain
5:35 PM 43.5 °F 41.9 °F 40.1 °F 88% 29.03 in 10.0 mi SE 3.5 mph - 0.04 in   Overcast
5:55 PM 43.0 °F - 40.5 °F 91% 29.03 in 10.0 mi Calm Calm - 0.04 in   Overcast
6:15 PM 44.2 °F 39.2 °F 39.0 °F 82% 29.06 in 10.0 mi SSW 9.2 mph - N/A   Overcast
6:35 PM 43.2 °F - 36.9 °F 78% 29.07 in 10.0 mi Calm Calm - N/A   Overcast
6:55 PM 41.7 °F - 34.9 °F 77% 29.08 in 10.0 mi Calm Calm - N/A   Overcast
7:15 PM 40.5 °F 36.5 °F 31.8 °F 71% 29.08 in 10.0 mi West 5.8 mph - N/A   Overcast
7:35 PM 38.3 °F 33.9 °F 32.4 °F 79% 29.09 in 10.0 mi SW 5.8 mph - N/A   Overcast
7:55 PM 38.7 °F 34.3 °F 31.5 °F 75% 29.11 in 10.0 mi SW 5.8 mph - N/A   Overcast
8:15 PM 38.3 °F - 31.1 °F 75% 29.11 in 10.0 mi Calm Calm - N/A   Overcast
8:35 PM 37.9 °F 35.5 °F 31.5 °F 77% 29.11 in 10.0 mi North 3.5 mph - N/A   Overcast
8:55 PM 36.3 °F 33.7 °F 32.4 °F 86% 29.11 in 10.0 mi North 3.5 mph - N/A   Overcast
9:15 PM 36.9 °F 34.3 °F 32.0 °F 83% 29.11 in 10.0 mi West 3.5 mph - N/A   Overcast
9:35 PM 36.1 °F 33.5 °F 32.2 °F 86% 29.11 in 10.0 mi NNW 3.5 mph - N/A   Overcast
9:55 PM 36.7 °F - 31.8 °F 83% 29.12 in 10.0 mi Calm Calm - N/A   Overcast
10:15 PM 36.5 °F - 32.0 °F 84% 29.12 in 10.0 mi Calm Calm - N/A   Overcast
10:35 PM 37.4 °F - 31.1 °F 78% 29.13 in 10.0 mi Calm Calm - N/A   Overcast
10:55 PM 36.9 °F - 31.1 °F 80% 29.13 in 10.0 mi Calm Calm - N/A   Overcast
11:15 PM 36.1 °F - 31.6 °F 84% 29.13 in 10.0 mi Calm Calm - N/A   Overcast
11:35 PM 37.2 °F - 30.4 °F 76% 29.13 in 10.0 mi Calm Calm - N/A   Overcast
11:55 PM 37.6 °F 34.0 °F 29.7 °F 73% 29.13 in 10.0 mi SSW 4.6 mph - N/A   Overcast